When you browse on this site, cookies collect data to enhance your experience and personalize the content and advertising you see.
Visit our Privacy Policy to learn more. By continuing to use the site, you agree to this use of cookies and data.
  • In United Kingdom
  • List of Countries
  • For 7 days
  • Water Temperature
  • Weather Map
  • Weather Widgets
  • user-avatar
    Login

    Hourly Weather Escuintla

    Today, 8 December, Sunday

    Time Temperature Precipitation Wind Pressure Humidity
    00:00 +24°C° 0 mm 2 mps 731 mmHg 72%
    01:00 +24°C° 0 mm 2 mps 731 mmHg 72%
    02:00 +24°C° 0 mm 2 mps 731 mmHg 72%
    03:00 +24°C° 0 mm 2 mps 730 mmHg 72%
    04:00 +23°C° 0 mm 2 mps 730 mmHg 72%
    05:00 +23°C° 0 mm 2 mps 731 mmHg 71%
    06:00 +23°C° 0 mm 2 mps 731 mmHg 71%
    07:00 +25°C° 0 mm 2 mps 731 mmHg 66%
    08:00 +27°C° 0 mm 1 mps 732 mmHg 62%
    09:00 +29°C° 0 mm 1 mps 732 mmHg 57%
    10:00 +30°C° 0 mm 1 mps 732 mmHg 54%
    11:00 +31°C° 0 mm 1 mps 731 mmHg 51%
    12:00 +32°C° 0 mm 2 mps 730 mmHg 48%
    13:00 +32°C° 0 mm 2 mps 730 mmHg 50%
    14:00 +32°C° 0 mm 2 mps 729 mmHg 52%
    15:00 +32°C° 0 mm 2 mps 729 mmHg 55%
    16:00 +30°C° 0 mm 2 mps 729 mmHg 64%
    17:00 +28°C° 0 mm 1 mps 729 mmHg 74%
    18:00 +26°C° 0 mm 1 mps 729 mmHg 83%
    19:00 +25°C° 0 mm 1 mps 729 mmHg 82%
    20:00 +25°C° 0 mm 1 mps 730 mmHg 80%
    21:00 +25°C° 0 mm 2 mps 730 mmHg 79%
    22:00 +24°C° 0 mm 2 mps 730 mmHg 78%
    23:00 +24°C° 0 mm 2 mps 730 mmHg 78%

    Tomorrow, 9 December, Monday

    Time Temperature Precipitation Wind Pressure Humidity
    00:00 +24°C° 0 mm 2 mps 730 mmHg 78%
    01:00 +24°C° 0 mm 2 mps 730 mmHg 78%
    02:00 +24°C° 0 mm 2 mps 729 mmHg 78%
    03:00 +23°C° 0 mm 1 mps 729 mmHg 78%
    04:00 +23°C° 0 mm 2 mps 729 mmHg 77%
    05:00 +23°C° 0 mm 2 mps 729 mmHg 76%
    06:00 +23°C° 0 mm 2 mps 730 mmHg 75%
    07:00 +25°C° 0 mm 1 mps 730 mmHg 69%
    08:00 +27°C° 0 mm 1 mps 731 mmHg 62%
    09:00 +30°C° 0 mm 1 mps 731 mmHg 56%
    10:00 +31°C° 0 mm 1 mps 730 mmHg 54%
    11:00 +31°C° 0 mm 1 mps 730 mmHg 52%
    12:00 +32°C° 0 mm 2 mps 729 mmHg 50%
    13:00 +32°C° 0.1 mm 2 mps 729 mmHg 54%
    14:00 +31°C° 0.1 mm 2 mps 728 mmHg 58%
    15:00 +30°C° 0.1 mm 2 mps 728 mmHg 63%
    16:00 +29°C° 0.3 mm 1 mps 728 mmHg 71%
    17:00 +27°C° 0.3 mm 1 mps 728 mmHg 80%
    18:00 +23°C° 0.3 mm 0 mps 728 mmHg 89%
    19:00 +23°C° 0.1 mm 0 mps 729 mmHg 89%
    20:00 +24°C° 0.1 mm 1 mps 729 mmHg 89%
    21:00 +24°C° 0.1 mm 1 mps 730 mmHg 90%
    22:00 +24°C° 0 mm 1 mps 730 mmHg 89%
    23:00 +24°C° 0 mm 1 mps 729 mmHg 89%

    Day after tomorrow, 10 December, Tuesday

    Time Temperature Precipitation Wind Pressure Humidity
    00:00 +23°C° 0 mm 1 mps 729 mmHg 89%
    01:00 +23°C° 0 mm 1 mps 729 mmHg 88%
    02:00 +23°C° 0 mm 1 mps 729 mmHg 87%
    03:00 +23°C° 0 mm 1 mps 729 mmHg 86%
    04:00 +23°C° 0 mm 1 mps 729 mmHg 85%
    05:00 +23°C° 0 mm 1 mps 729 mmHg 83%
    06:00 +23°C° 0 mm 1 mps 729 mmHg 82%
    07:00 +25°C° 0 mm 1 mps 730 mmHg 75%
    08:00 +28°C° 0 mm 1 mps 730 mmHg 68%
    09:00 +28°C° 0 mm 0 mps 731 mmHg 61%
    10:00 +31°C° 0 mm 1 mps 730 mmHg 59%
    11:00 +31°C° 0 mm 1 mps 730 mmHg 57%
    12:00 +32°C° 0 mm 2 mps 729 mmHg 56%
    13:00 +31°C° 0.5 mm 2 mps 729 mmHg 62%
    14:00 +31°C° 0.5 mm 2 mps 728 mmHg 68%
    15:00 +30°C° 0.5 mm 2 mps 728 mmHg 74%
    16:00 +28°C° 0.5 mm 1 mps 728 mmHg 80%
    17:00 +27°C° 0.5 mm 1 mps 728 mmHg 86%
    18:00 +24°C° 0.5 mm 0 mps 728 mmHg 93%
    19:00 +25°C° 0 mm 1 mps 729 mmHg 92%
    20:00 +25°C° 0 mm 1 mps 729 mmHg 92%
    21:00 +24°C° 0 mm 1 mps 730 mmHg 92%
    22:00 +24°C° 0 mm 1 mps 730 mmHg 91%
    23:00 +24°C° 0 mm 1 mps 730 mmHg 90%

    11 December, Wednesday

    Time Temperature Precipitation Wind Pressure Humidity
    00:00 +24°C° 0 mm 2 mps 729 mmHg 89%
    01:00 +23°C° 0 mm 2 mps 729 mmHg 87%
    02:00 +23°C° 0 mm 2 mps 729 mmHg 86%
    03:00 +23°C° 0 mm 2 mps 729 mmHg 84%
    04:00 +23°C° 0 mm 2 mps 729 mmHg 83%
    05:00 +23°C° 0 mm 2 mps 729 mmHg 82%
    06:00 +23°C° 0 mm 2 mps 730 mmHg 81%
    07:00 +25°C° 0 mm 1 mps 730 mmHg 75%
    08:00 +27°C° 0 mm 1 mps 731 mmHg 69%
    09:00 +29°C° 0 mm 1 mps 731 mmHg 63%
    10:00 +31°C° 0 mm 1 mps 731 mmHg 59%
    11:00 +32°C° 0 mm 2 mps 730 mmHg 55%
    12:00 +34°C° 0 mm 2 mps 730 mmHg 52%
    13:00 +32°C° 0.3 mm 2 mps 729 mmHg 56%
    14:00 +31°C° 0.3 mm 2 mps 729 mmHg 60%
    15:00 +31°C° 0.3 mm 2 mps 728 mmHg 64%
    16:00 +29°C° 0.3 mm 1 mps 728 mmHg 71%
    17:00 +27°C° 0.3 mm 1 mps 728 mmHg 78%
    18:00 +26°C° 0.3 mm 1 mps 729 mmHg 85%
    19:00 +25°C° 0 mm 1 mps 729 mmHg 83%
    20:00 +25°C° 0 mm 2 mps 730 mmHg 82%
    21:00 +24°C° 0 mm 2 mps 730 mmHg 80%
    22:00 +24°C° 0 mm 2 mps 730 mmHg 78%
    23:00 +24°C° 0 mm 2 mps 730 mmHg 76%

    12 December, Thursday

    Time Temperature Precipitation Wind Pressure Humidity
    00:00 +24°C° 0 mm 2 mps 730 mmHg 73%
    01:00 +24°C° 0 mm 2 mps 730 mmHg 73%
    02:00 +24°C° 0 mm 2 mps 730 mmHg 72%
    03:00 +24°C° 0 mm 2 mps 729 mmHg 72%
    04:00 +24°C° 0 mm 2 mps 729 mmHg 72%
    05:00 +24°C° 0 mm 2 mps 730 mmHg 71%
    06:00 +24°C° 0 mm 2 mps 730 mmHg 71%
    07:00 +26°C° 0 mm 2 mps 730 mmHg 66%
    08:00 +28°C° 0 mm 1 mps 731 mmHg 62%
    09:00 +30°C° 0 mm 1 mps 731 mmHg 57%
    10:00 +31°C° 0 mm 1 mps 731 mmHg 54%
    11:00 +32°C° 0 mm 2 mps 730 mmHg 52%
    12:00 +34°C° 0 mm 2 mps 730 mmHg 49%
    13:00 +32°C° 0.1 mm 2 mps 729 mmHg 51%
    14:00 +32°C° 0.1 mm 2 mps 729 mmHg 54%
    15:00 +32°C° 0.1 mm 2 mps 728 mmHg 56%
    16:00 +30°C° 0.2 mm 1 mps 728 mmHg 66%
    17:00 +27°C° 0.2 mm 1 mps 728 mmHg 77%
    18:00 +25°C° 0.2 mm 1 mps 729 mmHg 87%
    19:00 +25°C° 0 mm 1 mps 729 mmHg 85%
    20:00 +24°C° 0 mm 2 mps 730 mmHg 84%
    21:00 +24°C° 0 mm 2 mps 730 mmHg 83%
    22:00 +24°C° 0 mm 2 mps 730 mmHg 81%
    23:00 +24°C° 0 mm 2 mps 730 mmHg 80%

    13 December, Friday

    Time Temperature Precipitation Wind Pressure Humidity
    00:00 +24°C° 0 mm 2 mps 730 mmHg 78%
    01:00 +23°C° 0 mm 2 mps 729 mmHg 77%
    02:00 +23°C° 0 mm 2 mps 729 mmHg 76%
    03:00 +23°C° 0 mm 2 mps 729 mmHg 74%
    04:00 +23°C° 0 mm 2 mps 729 mmHg 73%
    05:00 +23°C° 0 mm 2 mps 729 mmHg 72%
    06:00 +23°C° 0 mm 2 mps 729 mmHg 70%
    07:00 +25°C° 0 mm 2 mps 730 mmHg 65%
    08:00 +27°C° 0 mm 1 mps 730 mmHg 59%
    09:00 +29°C° 0 mm 1 mps 730 mmHg 54%
    10:00 +30°C° 0 mm 1 mps 730 mmHg 51%
    11:00 +31°C° 0 mm 1 mps 730 mmHg 49%
    12:00 +33°C° 0 mm 1 mps 729 mmHg 46%
    13:00 +32°C° 0 mm 1 mps 728 mmHg 49%
    14:00 +32°C° 0 mm 2 mps 728 mmHg 52%
    15:00 +31°C° 0 mm 2 mps 727 mmHg 55%
    16:00 +29°C° 0.2 mm 1 mps 727 mmHg 66%
    17:00 +27°C° 0.2 mm 1 mps 728 mmHg 78%
    18:00 +23°C° 0.2 mm 0 mps 728 mmHg 89%
    19:00 +24°C° 0.4 mm 1 mps 728 mmHg 89%
    20:00 +24°C° 0.4 mm 1 mps 729 mmHg 89%
    21:00 +24°C° 0.4 mm 2 mps 729 mmHg 89%
    22:00 +23°C° 0 mm 2 mps 729 mmHg 88%
    23:00 +23°C° 0 mm 2 mps 729 mmHg 88%
    Show more